Regional Weather Roundup
Issued by NWS

Home | Current Version | Previous Version | Text Only | Print | Product List | Glossary Off
Versions: 1 2 3 4 5 6 7 8 9 10 11 12 13 14 15 16 17 18 19 20 21 22 23 24 25 26 27 28 29 30 31 32 33 34 35 36 37 38 39 40 41 42 43 44 45 46 47 48 49 50

000
ASUS43 KLOT 251706
RWRIL

ILLINOIS REGIONAL WEATHER ROUNDUP
NATIONAL WEATHER SERVICE CHICAGO/ROMEOVILLE IL
1100 AM CST THU DEC 25 2014

NOTE: "FAIR" INDICATES FEW OR NO CLOUDS BELOW 12,000 FEET WITH NO
SIGNIFICANT WEATHER AND/OR OBSTRUCTIONS TO VISIBILITY.

* THESE STATIONS ARE NOT UNDER NWS QUALITY CONTROL. THEY ALSO MAY NOT
  REPORT WEATHER SUCH AS PRECIPITATION OR FOG.

ILZ001-002-007-009-015-016-024-251800-
NORTHWEST ILLINOIS

CITY           SKY/WX    TMP DP  RH WIND       PRES   REMARKS
MOLINE         MOSUNNY   40  31  70 S8G21     29.91R
STERLING*      MOSUNNY   39  30  70 SW6       29.94R WCI  35
SAVANNA*       MOSUNNY   40  32  72 S12       29.92R
$$

ILZ003-004-008-010-011-017-018-251800-
NORTH CENTRAL ILLINOIS

CITY           SKY/WX    TMP DP  RH WIND       PRES   REMARKS
ROCKFORD       CLOUDY    36  29  75 SW12      29.94F WCI  28
FREEPORT*      PTSUNNY   36  31  82 SW14G23   29.93R WCI  27
ROCHELLE*      CLOUDY    36  32  85 SW17      29.94S WCI  26
DE KALB*       CLOUDY    34  29  83 SW12      29.94F WCI  25
PERU*          PTSUNNY   40  32  72 S16       29.97S
$$

ILZ005-006-012>014-019>023-251800-
NORTHEAST ILLINOIS

CITY           SKY/WX    TMP DP  RH WIND       PRES   REMARKS
CHICAGO-OHARE  PTSUNNY   36  27  69 SW17G24   29.95S WCI  26
CHICAGO-MIDWAY CLOUDY    38  29  70 SW20      29.97S WCI  28
AURORA         CLOUDY    37  29  72 SW14      29.96F WCI  28
LANSING*       CLOUDY    36  30  77 SW21      29.99S WCI  25
JOLIET*        CLOUDY    37  29  74 SW10G21   29.98S WCI  30
WAUKEGAN       CLOUDY    36  27  69 SW20G28   29.91F WCI  25
DUPAGE AIRPORT PTSUNNY   36  29  75 SW16      29.95S WCI  26
KANKAKEE*      CLOUDY    38  32  79 SW18G25   30.02S WCI  28
WHEELING       CLOUDY    36  27  69 SW13      29.96S WCI  27
MORRIS*        CLOUDY    38  32  79 SW17      29.98R WCI  29
ROMEOVILLE*    CLOUDY    37  30  74 SW14      29.97F WCI  29
NORTHERLY ISL    N/A     37  28  70 SW7         N/A  WCI  32
$$

LMZ740>746-251800-
SOUTHERN LAKE MICHIGAN

STATION/POSITION SKY/WX   TEMP    WIND        PRES    VSBY  WAVE
                          AIR SEA DIR/SP/G                  HT/PER
                          (F)     (DEG/KT/KT) (MB)    (MI)  (FT/S)
WAUKEGAN HARBOR            35                   N/A
HARRISON CRIB              35     230/ 16/ 22   N/A
BURNHAM HARBOR             37     240/  8/ 15   N/A
CALUMET HARBOR             36     200/ 13/ 17 1013.7F
MICHIGAN CITY              35     210/ 18/ 22   N/A
$$

ILZ025>027-034>036-040-047-049-050-058-095>099-251800-
WEST-CENTRAL ILLINOIS

CITY           SKY/WX    TMP DP  RH WIND       PRES   REMARKS
QUINCY         SUNNY     41  32  70 S13       29.93F
GALESBURG*     MOSUNNY   40  33  78 S15       29.94S
MACOMB*        PTSUNNY   41  34  76 S15       29.96F
JACKSONVILLE*  SUNNY     45  35  69 S13       29.99F
PITTSFIELD*    SUNNY     42  34  72 S10G18    29.97F
$$

ILZ028>032-037-038-041>044-048-051>054-059>061-251800-
CENTRAL ILLINOIS

CITY           SKY/WX    TMP DP  RH WIND       PRES   REMARKS
PONTIAC        CLOUDY    39  33  78 SW15      30.00S WCI  31
BLOOMINGTON    PTSUNNY   40  33  76 SW21      30.00S
DECATUR        MOSUNNY   41  33  73 S20       30.03F
PEORIA         MOSUNNY   42  32  67 S17G26    29.98S
LACON*         MOSUNNY   40  31  68 SW15G22   29.96F
LINCOLN*       SUNNY     43  34  71 S10G21    30.02S
SPRINGFIELD    SUNNY     43  34  70 S16       30.01S
TAYLORVILLE    SUNNY     41  34  75 S15       30.02F
$$

ILZ033-039-045-046-055>057-062-063-251800-
EAST-CENTRAL ILLINOIS

CITY           SKY/WX    TMP DP  RH WIND       PRES   REMARKS
CHAMPAIGN      CLOUDY    40  33  76 S16       30.04S
DANVILLE*      CLOUDY    37  32  82 SW20      30.02F WCI  27
RANTOUL*       PTSUNNY   40  34  77 SW17      30.03S
MATTOON        MOSUNNY   39  32  76 S12G21    30.05F WCI  32
PARIS*         CLOUDY    39  35  83 SW20      30.08S WCI  30
$$

ILZ079-100>102-251800-
SOUTHWEST ILLINOIS

CITY           SKY/WX    TMP DP  RH WIND       PRES   REMARKS
ALTON          SUNNY     43  34  70 S13       30.05S
BELLEVILLE     SUNNY     44  36  73 S12       30.06S
CAHOKIA*       SUNNY     45  34  65 S8        30.05F
SPARTA*        SUNNY     42  34  72 S9        30.09F
$$

ILZ064>066-069>071-074>076-080>082-084>086-088>090-092>094-251800-
SOUTH-CENTRAL ILLINOIS

CITY           SKY/WX    TMP DP  RH WIND       PRES   REMARKS
CARBONDALE     SUNNY     45  34  65 SW14      30.12F
CAIRO*         MOSUNNY   46  36  69 S13G21    30.16S
EFFINGHAM*     MOSUNNY   43  31  63 S10G16    30.09S
MARION         SUNNY     45  34  65 S12       30.13S
MT. VERNON     SUNNY     43  34  70 S16       30.11F
CENTRALIA*     SUNNY     43  33  69 S14G21    30.08F
SALEM*         SUNNY     45  35  69 S13       30.09S
METROPOLIS*    PTSUNNY   46  37  71 S12       30.15F
$$

ILZ067-068-072-073-078-083-087-091-251800-
SOUTHEAST ILLINOIS

CITY           SKY/WX    TMP DP  RH WIND       PRES   REMARKS
LAWRENCEVILLE  PTSUNNY   42  33  70 S15       30.12F
FLORA*         SUNNY     42  34  73 S16G22    30.11S
FAIRFIELD*     MOSUNNY   43  35  72 S14G20    30.11F
HARRISBURG*    SUNNY     45  35  69 SW13      30.14F
ROBINSON*      CLOUDY    40  33  76 SW13      30.12F
CARMI*         MOSUNNY   46  37  70 SW12      30.13F
$$

ABBREVIATIONS USED IN REMARKS
   TC - TEMPERATURE IN CELSIUS
  WCI - WIND CHILL INDEX
   HX - HEAT INDEX
  VSB - VISIBILITY
$$



USA.gov is the U.S. government's official web portal to all federal, state and local government web resources and services.